Location: Fort Worth, Tx
(32.7431°N, 97.3695°W)
Time: 18:13:00
(UTC-04:00)

Transit 4A - Pass Details

Date: 03 March 2024
Orbit: 871 x 972 km, 66.8° (Epoch: 21 April)

Event Time Altitude Azimuth Distance (km) Brightness Sun altitude
Rises 08:48:18 0° 353° (N) 3,478 10.7 10.4°
Reaches altitude 10° 08:52:15 10° 19° (NNE) 2,526 10.3 11.2°
Maximum altitude 08:55:05 14° 49° (NE) 2,265 10.5 11.7°
Drops below altitude 10° 08:57:55 10° 78° (ENE) 2,516 11.5 12.3°
Sets 09:01:48 0° 104° (ESE) 3,453 13.0 13.1°
